"TOA5","AWS1","CR1000","7964","CR1000.Std.14","CPU:AWS1_114.CR1","64363","TBL110"
"TIMESTAMP","RECORD","Wind_spd_WVc(1)","Wind_spd_WVc(2)","Air_Temp_Avg","Humidity_Avg","SW_upper_Wm2_Avg","Rain_Tot","Press_Avg","Issui_Tot","Depth_cm","SR50A_Raw","Quality","Ground_Temp_Avg(1)","Ground_Temp_Avg(2)","SW_lower_Wm2_Avg","Albedo_Avg","SWC_per(1)","SWC_per(2)","Period(1)","Period(2)"
"TS","RN","","","","","","","","","","","","","","","","","","",""
"","","WVc","WVc","Avg","Avg","Avg","Tot","Avg","Tot","Smp","Smp","Smp","Avg","Avg","Avg","Avg","Smp","Smp","Smp","Smp"
"2016-09-01 00:00:00",251197,0.551,146.9,12.21,85,0,0,861.2627,0,-0.363,3.115,267,19.88,20.14,0,0,49.51,56.7,33.18,34.91
"2016-09-01 00:10:00",251198,0.858,153.3,12.87,80.5,0,0,861.1279,0,-1.061,3.114,274,19.85,20.15,0.7050731,0,49.46,56.64,33.16,34.9
"2016-09-01 00:20:00",251199,0.857,156.4,14.2,72.6,0,0,861.1237,0,-0.174,3.099,263,19.87,20.15,1.501135,0,49.51,56.64,33.18,34.9
"2016-09-01 00:30:00",251200,0.515,138,14.93,68.9,0,0,861.328,0,-1.939,3.115,212,19.79,20.15,1.14861,0,49.51,56.64,33.18,34.9
"2016-09-01 00:40:00",251201,0.538,131,14.8,70.18,0,0,861.3386,0,-2.846,3.125,206,19.76,20.15,0.3298013,0,49.51,56.64,33.18,34.9
"2016-09-01 00:50:00",251202,0.537,107.4,14.74,70.51,0,0,861.3344,0,-3.064,3.129,221,19.78,20.15,0.246404,0,49.51,56.64,33.18,34.9
"2016-09-01 01:00:00",251203,0.476,139.3,13.96,76.14,0,0,861.3407,0,-4.089,3.144,188,19.73,20.15,0,0,49.51,56.64,33.18,34.9
"2016-09-01 01:10:00",251204,0.313,142.8,13.75,76.01,0,0,861.4059,0,-4.434,3.145,177,19.69,20.15,0.1175145,0,49.51,56.64,33.18,34.9
"2016-09-01 01:20:00",251205,0.352,145.3,13.81,75.71,0,0,861.3407,0,-4.359,3.145,179,19.68,20.15,0.04927934,0,49.46,56.58,33.16,34.88
"2016-09-01 01:30:00",251206,0.512,154,13.81,76.36,0,0,861.3407,0,-4,3.141,182,19.62,20.16,0.1402582,0,49.51,56.58,33.18,34.88
"2016-09-01 01:40:00",251207,0.395,139.1,14.16,74.94,0,0,861.3407,0,-3.835,3.137,187,19.58,20.16,0.4965949,0,49.51,56.58,33.18,34.88
"2016-09-01 01:50:00",251208,0.438,150.4,14.4,74.02,0,0,861.3723,0,-3.166,3.13,219,19.59,20.15,0.4928071,0,49.46,56.58,33.16,34.88
"2016-09-01 02:00:00",251209,0.308,149.3,14.48,73.33,0,0,861.5786,0,-3.981,3.137,196,19.55,20.12,0.4511091,0,49.46,56.58,33.16,34.88
"2016-09-01 02:10:00",251210,0.29,113.2,14.64,72.47,0,0,861.5934,0,-3.403,3.13,205,19.56,20.12,0.3184285,0,49.46,56.58,33.16,34.88
"2016-09-01 02:20:00",251211,0.053,170.5,14.83,71.7,0,0,861.7177,0,-3.215,3.131,216,19.5,20.1,0.3904412,0,49.46,56.58,33.16,34.88
"2016-09-01 02:30:00",251212,0.199,171.3,13.87,77.76,0,0,861.8441,0,-4.37,3.147,190,19.43,20.1,0,0,49.46,56.52,33.16,34.87
"2016-09-01 02:40:00",251213,0.26,177.8,13.39,80,0,0,861.8461,0,-2.416,3.127,225,19.42,20.08,0.01516274,0,49.51,56.52,33.18,34.87
"2016-09-01 02:50:00",251214,0.179,179.6,13.39,80.3,0,0,861.8461,0,-3.327,3.138,218,19.43,20.06,0.08718606,0,49.46,56.52,33.16,34.87
"2016-09-01 03:00:00",251215,0.207,179.4,13.08,82,0,0,861.8546,0,-3.254,3.138,210,19.41,20.07,0,0,49.46,56.52,33.16,34.87
"2016-09-01 03:10:00",251216,0.221,174.5,13.43,80.1,0,0,862.0188,0,-2.183,3.128,228,19.39,20.06,0.5534527,0,49.46,56.52,33.16,34.87
"2016-09-01 03:20:00",251217,0.408,176,12.89,84,0,0,862.0735,0,-2.703,3.135,216,19.33,20.06,0,0,49.46,56.52,33.16,34.87
"2016-09-01 03:30:00",251218,0.425,181.1,12.6,86.7,0,0,861.9325,0,-3.319,3.141,194,19.3,20.06,0.007581617,0,49.46,56.52,33.16,34.87
"2016-09-01 03:40:00",251219,0.562,187.8,13.02,83.9,0,0,861.8461,0,-2.734,3.131,215,19.29,20.06,0.5458781,0,49.46,56.52,33.16,34.87
"2016-09-01 03:50:00",251220,0.215,201.3,13.9,79.05,0,0,861.8461,0,-4.467,3.146,187,19.28,20.04,1.201693,0,49.46,56.46,33.16,34.86
"2016-09-01 04:00:00",251221,0.207,187.5,13.18,83.9,0,0,861.863,0,-4.309,3.149,177,19.22,20.01,0.04549001,0,49.46,56.46,33.16,34.86
"2016-09-01 04:10:00",251222,0.459,190,12.82,86.4,0,0,861.9767,0,-4.138,3.149,191,19.17,19.98,0,0,49.46,56.46,33.16,34.86
"2016-09-01 04:20:00",251223,0.445,194.1,12.73,87.4,0,0,862.0967,0,-3.861,3.147,191,19.2,20,0,0,49.46,56.52,33.16,34.87
"2016-09-01 04:30:00",251224,0.293,181.8,12.69,87.6,0,0,862.0988,0,-4.065,3.149,188,19.15,20.05,0,0,49.46,56.46,33.16,34.86
"2016-09-01 04:40:00",251225,0.445,183.5,12.5,88.6,0,0,862.1115,0,-3.636,3.146,195,19.1,20.04,0,0,49.46,56.46,33.16,34.86
"2016-09-01 04:50:00",251226,0.267,204.2,12.5,89.5,0,0,862.1979,0,-2.755,3.135,205,19.11,20,0.2160777,0,49.41,56.46,33.15,34.86
"2016-09-01 05:00:00",251227,0.309,186.6,12.52,89.1,0,0,862.3475,0,-2.307,3.133,207,19.08,19.98,0.1440518,0,49.46,56.46,33.16,34.86
"2016-09-01 05:10:00",251228,0.351,192,12.39,90.6,0,0,862.4422,0,-1.976,3.13,220,19.07,19.98,0.371502,0,49.46,56.46,33.16,34.86
"2016-09-01 05:20:00",251229,0.407,193.1,12.28,92.2,0,0,862.6044,0,-1.976,3.13,227,19.09,19.98,0.3866653,0,49.46,56.46,33.16,34.86
"2016-09-01 05:30:00",251230,0.505,190.9,12.22,93.7,0.9121374,0,862.8129,0,-1.596,3.127,235,19.02,19.99,0.7240497,0.444,49.46,56.46,33.16,34.86
"2016-09-01 05:40:00",251231,0.418,193.5,12.27,94.1,4.643251,0,862.8572,0,-1.596,3.127,236,18.95,19.99,1.26993,0.283,49.46,56.46,33.16,34.86
"2016-09-01 05:50:00",251232,0.49,187.7,12.21,94.7,9.852656,0,862.8572,0,-0.929,3.12,253,18.95,19.94,1.774111,0.182,49.46,56.46,33.16,34.86
"2016-09-01 06:00:00",251233,0.472,186.3,12.22,95.1,14.33078,0,862.8572,0,0.147,3.109,314,18.94,19.93,2.156986,0.151,49.46,56.46,33.16,34.86
"2016-09-01 06:10:00",251234,0.319,186.1,12.37,95.4,21.59249,0,862.9519,0,0.249,3.108,309,18.93,19.92,3.426916,0.158,49.41,56.41,33.15,34.84
"2016-09-01 06:20:00",251235,0.42,183.7,12.58,96.8,31.85797,0,863.0635,0,-0.245,3.11,263,18.88,19.89,7.831868,0.242,49.41,56.41,33.15,34.84
"2016-09-01 06:30:00",251236,0.472,180.3,12.99,94,70.07731,0,863.0909,0,-0.667,3.112,231,18.88,19.88,12.61211,0.187,49.41,56.41,33.15,34.84
"2016-09-01 06:40:00",251237,0.162,179.7,13.49,91.4,86.06725,0,863.1098,0,-0.68,3.11,242,18.84,19.85,16.16034,0.187,49.46,56.41,33.16,34.84
"2016-09-01 06:50:00",251238,0.171,172,14.14,89.1,79.42974,0,863.1098,0,-0.236,3.101,245,18.82,19.85,15.33755,0.189,49.41,56.41,33.15,34.84
"2016-09-01 07:00:00",251239,0.107,172.9,14.52,87.5,71.95972,0,863.1098,0,-0.804,3.107,253,18.84,19.85,11.18663,0.159,49.46,56.41,33.16,34.84
"2016-09-01 07:10:00",251240,0.206,173.2,14.79,87.6,86.29076,0,863.2321,0,-0.557,3.101,283,18.76,19.84,12.53937,0.154,49.41,56.41,33.15,34.84
"2016-09-01 07:20:00",251241,0,0,15.31,84.5,50.61954,0,863.3626,0,-0.025,3.095,286,18.69,19.82,8.736467,0.173,49.46,56.41,33.16,34.84
"2016-09-01 07:30:00",251242,0.053,54.72,15.16,87.3,48.3357,0,863.529,0,-0.035,3.095,265,18.61,19.81,7.435853,0.153,49.46,56.41,33.16,34.84
"2016-09-01 07:40:00",251243,0.051,342,15.51,79.19,64.87589,0,863.6174,0,0.071,3.091,249,18.6,19.81,14.28339,0.228,49.41,56.41,33.15,34.84
"2016-09-01 07:50:00",251244,0.121,30.34,16.11,75.05,268.0411,0,863.807,0,0.507,3.084,251,18.59,19.8,17.64437,0.092,49.46,56.41,33.16,34.84
"2016-09-01 08:00:00",251245,0.123,33.93,16.62,72.87,203.5621,0,863.8682,0,0.223,3.084,262,18.59,19.79,22.47208,0.166,49.41,56.35,33.15,34.83
"2016-09-01 08:10:00",251246,0.155,18.74,17.11,71.17,457.3443,0,863.8682,0,-0.38,3.088,260,18.58,19.77,27.12937,0.07,49.41,56.35,33.15,34.83
"2016-09-01 08:20:00",251247,0.296,12.45,17.36,69.11,582.5471,0,863.8976,0,-0.11,3.084,277,18.57,19.72,34.64022,0.059,49.46,56.35,33.16,34.83
"2016-09-01 08:30:00",251248,0.316,13.42,17.58,69.1,538.9013,0,863.9503,0,-0.506,3.086,283,18.56,19.7,45.7019,0.099,49.41,56.35,33.15,34.83
"2016-09-01 08:40:00",251249,0.24,15.14,17.78,68.32,277.1442,0,863.925,0,0.215,3.079,331,18.57,19.64,46.36507,0.266,49.41,56.35,33.15,34.83
"2016-09-01 08:50:00",251250,0.263,95.6,17.76,68.32,113.8172,0,863.8723,0,-0.158,3.084,275,18.53,19.63,36.4251,0.331,49.41,56.35,33.15,34.83
"2016-09-01 09:00:00",251251,0.385,12.25,17.93,68.7,597.9263,0,863.8892,0,-0.285,3.082,261,18.5,19.7,42.50353,0.074,49.41,56.35,33.15,34.83
"2016-09-01 09:10:00",251252,0.343,356.1,18.39,66.25,651.6455,0,863.9397,0,-0.419,3.081,230,18.52,19.7,58.61289,0.099,49.41,56.35,33.15,34.83
"2016-09-01 09:20:00",251253,0.196,306,18.34,68.12,272.8719,0,864.1208,0,-0.093,3.079,241,18.5,19.66,41.54856,0.186,49.41,56.29,33.15,34.82
"2016-09-01 09:30:00",251254,0.441,16.76,18.55,64.76,388.2888,0,864.1354,0,-0.244,3.08,235,18.49,19.64,51.34454,0.174,49.41,56.29,33.15,34.82
"2016-09-01 09:40:00",251255,0.237,171.6,18.75,65.37,624.6012,0,864.2052,0,0.012,3.075,266,18.49,19.62,61.49673,0.11,49.41,56.29,33.15,34.82
"2016-09-01 09:50:00",251256,0.248,25.28,19.1,65.06,297.5188,0,864.152,0,-2.636,3.099,229,18.49,19.56,65.4227,0.218,49.41,56.29,33.15,34.82
"2016-09-01 10:00:00",251257,0.32,42.48,18.85,65.1,328.6703,0,864.116,0,-0.689,3.085,230,18.49,19.54,46.0316,0.14,49.46,56.29,33.16,34.82
"2016-09-01 10:10:00",251258,0.377,9.69,18.26,65.61,370.5435,0,863.9795,0,-0.562,3.084,276,18.51,19.54,48.25606,0.13,49.35,56.29,33.14,34.82
"2016-09-01 10:20:00",251259,0.519,4.037,18.7,63.83,882.7149,0,864.0961,0,-2.565,3.099,205,18.5,19.54,105.0083,0.119,49.41,56.29,33.15,34.82
"2016-09-01 10:30:00",251260,0.356,316.5,19.18,64.01,567.0893,0,864.0762,0,0.331,3.071,321,18.49,19.54,71.17522,0.125,49.41,56.23,33.15,34.8
"2016-09-01 10:40:00",251261,0.284,351.5,19.05,64.85,759.7441,0,864.095,0,-2.708,3.099,220,18.47,19.56,100.4874,0.131,49.41,56.29,33.15,34.82
"2016-09-01 10:50:00",251262,0.513,343.5,19.51,61.54,838.0157,0,864.1084,0,1.023,3.065,388,18.55,19.55,107.0584,0.126,49.35,56.29,33.14,34.82
"2016-09-01 11:00:00",251263,0.415,317.6,19.05,64.43,726.4034,0,864.0921,0,-2.397,3.096,259,18.55,19.52,99.32018,0.134,49.35,56.23,33.14,34.8
"2016-09-01 11:10:00",251264,0.467,6.517,19.42,64.33,838.1533,0,864.095,0,-0.86,3.08,264,18.63,19.47,115.6607,0.137,49.41,56.23,33.15,34.8
"2016-09-01 11:20:00",251265,0.485,315.6,19.62,64.1,846.0217,0,864.0955,0,-1.928,3.091,238,18.66,19.45,119.2229,0.139,49.41,56.23,33.15,34.8
"2016-09-01 11:30:00",251266,0.476,33.38,19.91,62.72,1022.185,0,864.076,0,-3.696,3.106,224,18.74,19.45,148.6449,0.145,49.35,56.29,33.14,34.82
"2016-09-01 11:40:00",251267,0.297,19.14,20.32,62.83,1043.916,0,864.0858,0,-2.315,3.089,257,18.79,19.45,155.2917,0.148,49.35,56.23,33.14,34.8
"2016-09-01 11:50:00",251268,0.423,185.3,20.76,63.15,1010.356,0,864.0684,0,-3.162,3.094,206,18.81,19.44,149.8186,0.148,49.24,56.23,33.11,34.8
"2016-09-01 12:00:00",251269,0.48,42.29,21.01,62.27,863.0056,0,863.9692,0,-0.294,3.07,324,18.87,19.41,123.2858,0.141,49.3,56.18,33.12,34.79
"2016-09-01 12:10:00",251270,0.302,72.13,20.33,63.88,803.0523,0,864.047,0,-0.678,3.073,301,18.95,19.44,118.5277,0.144,49.24,56.23,33.11,34.8
"2016-09-01 12:20:00",251271,0.347,309.1,20.58,62.1,845.1087,0,864.046,0,-0.249,3.07,261,19.02,19.41,126.2062,0.148,49.3,56.23,33.12,34.8
"2016-09-01 12:30:00",251272,0.464,269,20.83,61.3,1018.167,0,864.0561,0,-2.54,3.088,211,19.11,19.37,158.9359,0.156,49.24,56.23,33.11,34.8
"2016-09-01 12:40:00",251273,0.556,35.29,21.08,59.93,997.3642,0,863.8742,0,0.148,3.063,271,19.09,19.36,155.0661,0.155,49.19,56.23,33.09,34.8
"2016-09-01 12:50:00",251274,1.05,33.92,20.88,59.22,893.4428,0,863.7408,0,1.449,3.05,346,19.23,19.36,136.7145,0.148,49.19,56.18,33.09,34.79
"2016-09-01 13:00:00",251275,0.354,31.46,21.03,59.53,728.1466,0,863.5228,0,-0.325,3.068,253,19.28,19.36,108.9643,0.145,49.19,56.18,33.09,34.79
"2016-09-01 13:10:00",251276,0.407,47.11,21.21,58.72,650.1237,0,863.5714,0,-1.585,3.079,333,19.35,19.36,94.90524,0.134,49.13,56.18,33.08,34.79
"2016-09-01 13:20:00",251277,0.283,135.4,20.71,63.65,511.5303,0,863.5715,0,-1.589,3.082,223,19.43,19.35,72.52802,0.126,49.19,56.18,33.09,34.79
"2016-09-01 13:30:00",251278,0.36,313.8,21.34,58.3,943.2051,0,863.6518,0,-1.032,3.073,238,19.5,19.35,142.6459,0.15,49.13,56.18,33.08,34.79
"2016-09-01 13:40:00",251279,0.394,79.92,21.49,59.31,829.4863,0,863.8344,0,0.404,3.056,300,19.58,19.35,113.186,0.134,49.13,56.12,33.08,34.78
"2016-09-01 13:50:00",251280,0.313,149.6,21.86,60.53,561.2877,0,863.8206,0,-0.655,3.068,390,19.68,19.35,65.21421,0.114,49.13,56.12,33.08,34.78
"2016-09-01 14:00:00",251281,0.218,316.9,21.37,59.72,722.8184,0,863.819,0,0.109,3.062,331,19.74,19.33,76.67378,0.106,49.08,56.12,33.07,34.78
"2016-09-01 14:10:00",251282,0.266,353.6,21.12,57.57,560.5881,0,863.8157,0,-0.249,3.065,299,19.82,19.33,56.55132,0.104,49.08,56.12,33.07,34.78
"2016-09-01 14:20:00",251283,0.444,15.95,21.25,55.57,293.6472,0,863.8192,0,-4.099,3.103,220,19.94,19.36,45.35701,0.165,49.03,56.12,33.05,34.78
"2016-09-01 14:30:00",251284,0.497,76.87,21.06,58,370.3978,0,863.8552,0,-0.084,3.065,308,20.01,19.37,54.79676,0.149,49.08,56.06,33.07,34.76
"2016-09-01 14:40:00",251285,0.379,330,21.14,56.9,274.3613,0,863.8704,0,-0.212,3.066,240,20.1,19.41,40.21461,0.146,49.03,56.12,33.05,34.78
"2016-09-01 14:50:00",251286,0.221,277.2,21.2,56.89,286.0146,0,863.8552,0,0.119,3.061,233,20.16,19.39,46.64925,0.162,49.03,56.12,33.05,34.78
"2016-09-01 15:00:00",251287,0.282,213.9,21.34,57.81,268.3165,0,863.8644,0,-1.863,3.081,254,20.23,19.37,39.55144,0.147,49.03,56.06,33.05,34.76
"2016-09-01 15:10:00",251288,0.25,293.1,21.44,55.67,221.6641,0,863.865,0,-2.166,3.083,257,20.3,19.36,32.55595,0.147,48.97,56.06,33.04,34.76
"2016-09-01 15:20:00",251289,0.283,28.93,21.54,54.12,224.2109,0,863.8649,0,-0.192,3.064,227,20.4,19.38,32.46121,0.144,48.97,56.06,33.04,34.76
"2016-09-01 15:30:00",251290,0.428,68.1,21.35,54.21,179.1659,0,863.8627,0,0.94,3.054,373,20.46,19.37,24.51075,0.137,48.97,56.06,33.04,34.76
"2016-09-01 15:40:00",251291,0.369,134.7,21.11,57.32,173.5692,0,863.8879,0,1.9,3.047,395,20.5,19.37,24.17348,0.139,48.92,56.06,33.03,34.76
"2016-09-01 15:50:00",251292,0.337,184.5,21,58.85,128.9133,0,864.051,0,-4.132,3.104,197,20.56,19.38,16.97714,0.13,48.97,56,33.04,34.75
"2016-09-01 16:00:00",251293,0.317,241.7,20.92,58.61,101.1144,0,864.085,0,-0.522,3.069,321,20.64,19.39,12.28948,0.119,48.92,56,33.03,34.75
"2016-09-01 16:10:00",251294,0.07,214.3,20.8,57.49,103.9835,0,864.1187,0,-3.79,3.103,198,20.72,19.45,13.28234,0.127,48.92,56,33.03,34.75
"2016-09-01 16:20:00",251295,0.231,142.3,20.63,58.81,82.19009,0,864.1271,0,-3.742,3.103,193,20.73,19.51,9.227532,0.112,48.81,56,33,34.75
"2016-09-01 16:30:00",251296,0.087,196.7,20.38,59.87,72.86745,0,864.2914,0,-4.085,3.107,189,20.82,19.54,8.371096,0.115,48.86,56,33.01,34.75
"2016-09-01 16:40:00",251297,0.109,221.2,20.33,59.64,76.49903,0,864.3757,0,-3.265,3.1,194,20.84,19.54,9.295744,0.119,48.86,56,33.01,34.75
"2016-09-01 16:50:00",251298,0.099,208,20.15,60.24,38.24559,0,864.4747,0,-0.587,3.076,259,20.88,19.54,2.963421,0.075,48.81,56,33,34.75
"2016-09-01 17:00:00",251299,0.167,244.1,19.76,61.09,39.39323,0,864.5168,0,0.001,3.071,300,20.88,19.54,3.774383,0.091,48.86,55.95,33.01,34.74
"2016-09-01 17:10:00",251300,0,0,19.65,62.95,35.8206,0,864.6221,0,0.382,3.068,359,20.93,19.54,3.539431,0.099,48.86,55.95,33.01,34.74
"2016-09-01 17:20:00",251301,0.011,47.14,19.58,62.21,26.84777,0,864.6263,0,-4.412,3.115,197,20.94,19.55,2.607204,0.097,48.7,55.95,32.97,34.74
"2016-09-01 17:30:00",251302,0.063,236.3,19.19,63.6,20.0641,0,864.6263,0,-3.869,3.113,189,20.93,19.61,1.621924,0.08,48.75,55.95,32.99,34.74
"2016-09-01 17:40:00",251303,0,0,18.81,67.68,18.64919,0,864.6263,0,0.202,3.075,365,20.94,19.65,1.716662,0.092,48.75,55.95,32.99,34.74
"2016-09-01 17:50:00",251304,0.066,165.9,18.26,71.95,10.72574,0,864.6664,0,0.755,3.074,346,20.96,19.68,0.4585344,0.036,48.75,55.95,32.99,34.74
"2016-09-01 18:00:00",251305,0.269,183,17.46,78.05,5.895425,0,864.8686,0,1.007,3.075,327,20.99,19.66,0,0,48.75,55.89,32.99,34.72
"2016-09-01 18:10:00",251306,0.049,186.4,17.02,80.5,3.034179,0,864.8791,0,0.302,3.083,300,21,19.63,0.003789541,0.001,48.75,55.89,32.99,34.72
"2016-09-01 18:20:00",251307,0.32,177.5,16.5,83.5,0.5856122,0,864.6874,0,-1.146,3.101,258,20.94,19.63,0,0,48.75,55.89,32.99,34.72
"2016-09-01 18:30:00",251308,0.524,183.8,16.05,85.4,0,0,864.6263,0,-4.294,3.133,192,20.89,19.68,0,0,48.75,55.89,32.99,34.72
"2016-09-01 18:40:00",251309,0.162,198.4,16.04,83.7,0,0,864.6263,0,-0.282,3.094,329,20.88,19.71,0,0,48.7,55.89,32.97,34.72
"2016-09-01 18:50:00",251310,0.322,187.9,15.77,85.2,0,0,864.7401,0,0.692,3.085,347,20.93,19.73,0,0,48.7,55.89,32.97,34.72
"2016-09-01 19:00:00",251311,0.111,175.3,15.69,85.3,0,0,864.877,0,0.068,3.092,340,20.88,19.79,0,0,48.7,55.89,32.97,34.72
"2016-09-01 19:10:00",251312,0.008,156.5,15.44,87.2,0,0,864.8791,0,0.63,3.087,353,20.79,19.79,0.007579082,0,48.7,55.89,32.97,34.72
"2016-09-01 19:20:00",251313,0.014,148.5,15.65,84.9,0,0,864.9718,0,-0.667,3.101,239,20.82,19.78,0.3979018,0,48.7,55.89,32.97,34.72
"2016-09-01 19:30:00",251314,0.031,143.1,15.23,88,0,0,865.2625,0,-0.529,3.102,258,20.84,19.81,0.05684311,0,48.7,55.83,32.97,34.71
"2016-09-01 19:40:00",251315,0.162,194.7,15.04,88.2,0,0,865.5468,0,0.519,3.089,329,20.74,19.81,0.3334796,0,48.7,55.89,32.97,34.72
"2016-09-01 19:50:00",251316,0.109,188.8,15.21,88,0,0,865.8691,0,0.402,3.092,341,20.74,19.87,0.511588,0,48.65,55.89,32.96,34.72
"2016-09-01 20:00:00",251317,0.105,185.8,14.99,89.6,0,0,865.9512,0,0.197,3.094,312,20.69,19.88,0.2538992,0,48.7,55.89,32.97,34.72
"2016-09-01 20:10:00",251318,0.058,201.2,15.19,88.7,0,0,866.2692,0,-0.825,3.103,304,20.64,19.88,0.6555908,0,48.7,55.89,32.97,34.72
"2016-09-01 20:20:00",251319,0.003,193.1,14.87,91.1,0,0,866.5178,0,-2.283,3.12,229,20.67,19.89,0.1818998,0,48.7,55.83,32.97,34.71
"2016-09-01 20:30:00",251320,0.127,192.7,14.63,94.1,0,0,866.6293,0,-1.461,3.112,260,20.67,19.94,0.2160059,0,48.7,55.89,32.97,34.72
"2016-09-01 20:40:00",251321,0.102,181.9,14.52,95.4,0,0,866.4545,0,-0.095,3.101,307,20.61,19.95,0.2046379,0,48.7,55.83,32.97,34.71
"2016-09-01 20:50:00",251322,0.451,182.7,14.37,97.4,0,0,866.5472,0,0.222,3.097,304,20.59,19.94,0.3638043,0,48.65,55.83,32.96,34.71
"2016-09-01 21:00:00",251323,0.323,183.1,14.5,96,0,0,866.4694,0,0.11,3.096,312,20.53,19.94,0.4888556,0,48.65,55.83,32.96,34.71
"2016-09-01 21:10:00",251324,0.306,180.2,14.74,91.7,0,0,866.3956,0,0.739,3.091,379,20.51,19.95,0.6025426,0,48.65,55.83,32.96,34.71
"2016-09-01 21:20:00",251325,0.328,184.4,14.6,93.8,0,0,866.3956,0,-0.094,3.1,332,20.48,19.98,0.3751841,0,48.65,55.83,32.96,34.71
"2016-09-01 21:30:00",251326,0.425,180.8,14.69,94.1,0,0,866.3956,0,-2.602,3.123,240,20.43,19.99,0.54573,0,48.65,55.83,32.96,34.71
"2016-09-01 21:40:00",251327,0.406,180,14.76,92.5,0,0,866.3956,0,-2.03,3.116,246,20.44,20,0.4737355,0,48.65,55.83,32.96,34.71
"2016-09-01 21:50:00",251328,0.267,181.4,15.04,89.7,0,0,866.4314,0,-1.668,3.112,244,20.39,20.01,0.6594504,0,48.65,55.83,32.96,34.71
"2016-09-01 22:00:00",251329,0.098,182.7,15.22,88.4,0,0,866.4588,0,-1.944,3.111,251,20.37,20.04,0.7200689,0,48.65,55.77,32.96,34.7
"2016-09-01 22:10:00",251330,0.071,246.1,15.72,82.6,0,0,866.4503,0,-1.495,3.109,250,20.35,20.07,1.061133,0,48.65,55.77,32.96,34.7
"2016-09-01 22:20:00",251331,0.044,208.7,15.09,88,0,0,866.5557,0,-0.679,3.102,285,20.33,20.07,0.09853215,0,48.65,55.77,32.96,34.7
"2016-09-01 22:30:00",251332,0.044,202.1,14.87,89.5,0,0,866.5851,0,-1.014,3.109,257,20.31,20.06,0.1402181,0,48.65,55.77,32.96,34.7
"2016-09-01 22:40:00",251333,0.199,153.7,14.47,93.1,0,0,866.642,0,-0.234,3.1,281,20.26,20.07,0.0682148,0,48.65,55.77,32.96,34.7
"2016-09-01 22:50:00",251334,0.473,118,15.03,87.5,0,0,866.621,0,0.245,3.093,319,20.23,20.04,0.9512202,0,48.59,55.77,32.95,34.7
"2016-09-01 23:00:00",251335,0.322,130.9,15.1,87.4,0,0,866.6484,0,-0.389,3.101,280,20.18,20.03,0.5684596,0,48.65,55.77,32.96,34.7
"2016-09-01 23:10:00",251336,0.179,113.5,15.17,86.6,0,0,866.6631,0,-0.107,3.095,292,20.18,20.03,0.6518413,0,48.65,55.72,32.96,34.68
"2016-09-01 23:20:00",251337,0.055,76.22,15.44,84.4,0,0,866.8694,0,-0.978,3.103,282,20.16,20.03,0.632898,0,48.65,55.72,32.96,34.68
"2016-09-01 23:30:00",251338,0,0,15.56,84.2,0,0,866.9011,0,-0.054,3.095,325,20.11,20.02,0.6783606,0,48.65,55.72,32.96,34.68
"2016-09-01 23:40:00",251339,0.067,172.6,14.95,88.6,0,0,866.9011,0,0.292,3.093,334,20.08,20.01,0.1705356,0,48.59,55.72,32.95,34.68
"2016-09-01 23:50:00",251340,0.126,173.7,15.22,87.1,0,0,866.8926,0,0.543,3.091,375,20.02,20.02,0.5040385,0,48.65,55.72,32.96,34.68
